SAS578 ESGG-ESSA

Flight info

Callsign SAS578
Flight time 0h 49m
Altitude 29000
Route LABAN N873 ARS T317 ELTOK
Aircraft A320/M-SDE3FGHIRWY/LB1

Departure

Time 2026-05-03 22:26
Airport Göteborg Landvetter Airport (ESGG)

Arrival

Time 2026-05-03 23:15
Airport Stockholm-Arlanda Airport (ESSA)
Time Latitude Longitude Altitude Speed Heading
2026-05-03 21:49 57.66849 12.29374 516 ft 0 kts 116°
2026-05-03 22:10 57.66852 12.29362 516 ft 2 kts 111°
2026-05-03 22:10 57.66858 12.29334 516 ft 2 kts 103°
2026-05-03 22:10 57.66862 12.29304 516 ft 2 kts 91°
2026-05-03 22:11 57.66861 12.29274 516 ft 2 kts 72°
2026-05-03 22:11 57.66854 12.29246 516 ft 2 kts 44°
2026-05-03 22:11 57.66843 12.29228 516 ft 1 kts 27°
2026-05-03 22:11 57.66840 12.29226 516 ft 0 kts 25°
2026-05-03 22:12 57.66841 12.29226 516 ft 0 kts 25°
2026-05-03 22:15 57.66849 12.29234 516 ft 3 kts 26°
2026-05-03 22:15 57.66875 12.29257 516 ft 5 kts 26°
2026-05-03 22:16 57.66917 12.29295 516 ft 8 kts 26°
2026-05-03 22:16 57.66969 12.29334 516 ft 8 kts 359°
2026-05-03 22:16 57.66999 12.29246 516 ft 10 kts 294°
2026-05-03 22:16 57.67055 12.29195 516 ft 11 kts 20°
2026-05-03 22:17 57.67132 12.29266 516 ft 14 kts 26°
2026-05-03 22:17 57.67141 12.29274 516 ft 0 kts 25°
2026-05-03 22:18 57.67149 12.29282 516 ft 3 kts 25°
2026-05-03 22:18 57.67175 12.29305 516 ft 5 kts 25°
2026-05-03 22:18 57.67217 12.29343 516 ft 8 kts 26°
2026-05-03 22:19 57.67274 12.29395 516 ft 10 kts 26°
2026-05-03 22:19 57.67345 12.29460 516 ft 12 kts 26°
2026-05-03 22:19 57.67404 12.29480 516 ft 7 kts 334°
2026-05-03 22:19 57.67414 12.29457 516 ft 1 kts 298°
2026-05-03 22:21 57.67417 12.29445 516 ft 3 kts 298°
2026-05-03 22:21 57.67425 12.29419 516 ft 0 kts 298°
2026-05-03 22:23 57.67426 12.29415 516 ft 1 kts 298°
2026-05-03 22:23 57.67435 12.29383 516 ft 4 kts 298°
2026-05-03 22:23 57.67452 12.29321 516 ft 7 kts 295°
2026-05-03 22:23 57.67459 12.29216 515 ft 10 kts 267°
2026-05-03 22:24 57.67443 12.29066 515 ft 11 kts 245°
2026-05-03 22:24 57.67405 12.29003 515 ft 0 kts 206°
2026-05-03 22:25 57.67359 12.28960 515 ft 32 kts 206°
2026-05-03 22:25 57.66935 12.28574 513 ft 101 kts 206°
2026-05-03 22:25 57.66137 12.27852 512 ft 151 kts 205°
2026-05-03 22:26 57.65185 12.26998 1080 ft 149 kts 206°
2026-05-03 22:26 57.64237 12.26137 1660 ft 160 kts 208°
2026-05-03 22:26 57.63159 12.25200 2032 ft 183 kts 200°
2026-05-03 22:26 57.61818 12.25344 2378 ft 210 kts 162°
2026-05-03 22:27 57.60439 12.26414 3107 ft 216 kts 160°
2026-05-03 22:27 57.59044 12.27514 3905 ft 220 kts 159°
2026-05-03 22:27 57.57640 12.28733 4685 ft 228 kts 148°
2026-05-03 22:27 57.56658 12.31056 4945 ft 237 kts 108°
2026-05-03 22:28 57.56609 12.34328 5003 ft 270 kts 79°
2026-05-03 22:28 57.57184 12.37715 5008 ft 277 kts 68°
2026-05-03 22:28 57.57986 12.40993 5010 ft 279 kts 64°
2026-05-03 22:28 57.58836 12.44228 5533 ft 282 kts 64°
2026-05-03 22:29 57.59682 12.47547 6501 ft 285 kts 65°
2026-05-03 22:29 57.60499 12.50951 7377 ft 290 kts 67°
2026-05-03 22:29 57.61294 12.54453 8237 ft 295 kts 67°
2026-05-03 22:29 57.62325 12.57809 9066 ft 301 kts 52°
2026-05-03 22:30 57.63791 12.60621 9881 ft 305 kts 36°
2026-05-03 22:30 57.65572 12.62934 10340 ft 323 kts 32°
2026-05-03 22:30 57.66839 12.64533 10512 ft 338 kts 32°
2026-05-03 22:30 57.69473 12.67864 11269 ft 350 kts 33°
2026-05-03 22:31 57.71506 12.70446 11958 ft 356 kts 33°
2026-05-03 22:31 57.72877 12.72195 12423 ft 359 kts 33°
2026-05-03 22:31 57.74957 12.74852 13131 ft 365 kts 33°
2026-05-03 22:31 57.77093 12.77590 13807 ft 370 kts 33°
2026-05-03 22:32 57.79233 12.80340 14426 ft 375 kts 32°
2026-05-03 22:32 57.81372 12.83092 15040 ft 379 kts 32°
2026-05-03 22:32 57.83559 12.85907 15679 ft 383 kts 32°
2026-05-03 22:32 57.85768 12.88753 16271 ft 388 kts 32°
2026-05-03 22:33 57.88012 12.91650 16835 ft 394 kts 32°
2026-05-03 22:33 57.90291 12.94599 17447 ft 399 kts 32°
2026-05-03 22:33 57.92593 12.97585 18045 ft 404 kts 32°
2026-05-03 22:33 57.94921 13.00605 18584 ft 408 kts 32°
2026-05-03 22:34 57.97268 13.03658 19133 ft 412 kts 32°
2026-05-03 22:34 57.99640 13.06749 19692 ft 416 kts 32°
2026-05-03 22:34 58.02032 13.09863 20257 ft 420 kts 32°
2026-05-03 22:34 58.04449 13.13015 20812 ft 424 kts 32°
2026-05-03 22:35 58.06885 13.16197 21343 ft 428 kts 32°
2026-05-03 22:35 58.09343 13.19421 21872 ft 431 kts 32°
2026-05-03 22:35 58.11788 13.22633 22396 ft 435 kts 32°
2026-05-03 22:35 58.14283 13.25922 22936 ft 439 kts 32°
2026-05-03 22:36 58.16727 13.29458 23463 ft 445 kts 40°
2026-05-03 22:36 58.18900 13.33701 23910 ft 450 kts 49°
2026-05-03 22:36 58.20945 13.38235 24352 ft 454 kts 49°
2026-05-03 22:36 58.23002 13.42806 24782 ft 457 kts 49°
2026-05-03 22:37 58.25074 13.47415 25204 ft 461 kts 49°
2026-05-03 22:37 58.27163 13.52074 25623 ft 464 kts 49°
2026-05-03 22:37 58.29262 13.56768 26035 ft 467 kts 49°
2026-05-03 22:37 58.31375 13.61495 26477 ft 471 kts 48°
2026-05-03 22:38 58.33510 13.66271 26825 ft 476 kts 48°
2026-05-03 22:38 58.35664 13.71096 27195 ft 480 kts 48°
2026-05-03 22:38 58.37828 13.75961 27570 ft 483 kts 48°
2026-05-03 22:38 58.40006 13.80867 27920 ft 486 kts 48°
2026-05-03 22:39 58.42185 13.85788 28357 ft 487 kts 48°
2026-05-03 22:39 58.44352 13.90698 28741 ft 490 kts 48°
2026-05-03 22:39 58.46551 13.95689 28975 ft 492 kts 48°
2026-05-03 22:39 58.48722 14.00629 29011 ft 477 kts 48°
2026-05-03 22:40 58.50824 14.05429 29006 ft 467 kts 48°
2026-05-03 22:40 58.54971 14.14911 29009 ft 465 kts 48°
2026-05-03 22:41 58.59132 14.24445 29008 ft 466 kts 48°
2026-05-03 22:41 58.63297 14.34019 29000 ft 467 kts 48°
2026-05-03 22:42 58.67454 14.43602 28997 ft 467 kts 48°
2026-05-03 22:42 58.71603 14.53232 29009 ft 467 kts 48°
2026-05-03 22:43 58.75717 14.62834 29019 ft 467 kts 48°
2026-05-03 22:43 58.79854 14.72512 29031 ft 467 kts 48°
2026-05-03 22:44 58.83956 14.82170 29031 ft 467 kts 48°
2026-05-03 22:44 58.88070 14.91883 29021 ft 467 kts 48°
2026-05-03 22:45 58.92185 15.01619 29028 ft 467 kts 48°
2026-05-03 22:45 58.96298 15.11402 29030 ft 467 kts 49°
2026-05-03 22:46 59.00388 15.21180 29055 ft 468 kts 48°
2026-05-03 22:46 59.04488 15.31021 29021 ft 468 kts 48°
2026-05-03 22:47 59.08473 15.40642 29023 ft 447 kts 48°
2026-05-03 22:47 59.10385 15.45268 29024 ft 434 kts 48°
2026-05-03 22:47 59.12266 15.49824 29023 ft 429 kts 48°
2026-05-03 22:48 59.15996 15.58870 29028 ft 425 kts 48°
2026-05-03 22:48 59.19682 15.67861 29024 ft 424 kts 48°
2026-05-03 22:49 59.23367 15.76861 29030 ft 425 kts 47°
2026-05-03 22:49 59.27032 15.85854 28681 ft 424 kts 47°
2026-05-03 22:49 59.28861 15.90374 28296 ft 422 kts 47°
2026-05-03 22:50 59.30668 15.94850 27986 ft 418 kts 47°
2026-05-03 22:50 59.32472 15.99320 27972 ft 418 kts 47°
2026-05-03 22:50 59.34283 16.03806 27969 ft 419 kts 47°
2026-05-03 22:50 59.36088 16.08289 27972 ft 419 kts 47°
2026-05-03 22:51 59.37889 16.12777 27971 ft 419 kts 47°
2026-05-03 22:51 59.39688 16.17270 27951 ft 418 kts 47°
2026-05-03 22:51 59.41479 16.21749 27609 ft 416 kts 47°
2026-05-03 22:51 59.43260 16.26207 27248 ft 413 kts 47°
2026-05-03 22:52 59.45008 16.30586 26936 ft 410 kts 47°
2026-05-03 22:52 59.46761 16.34989 26565 ft 409 kts 47°
2026-05-03 22:52 59.48512 16.39399 26211 ft 406 kts 47°
2026-05-03 22:52 59.50244 16.43770 25851 ft 404 kts 47°
2026-05-03 22:53 59.51960 16.48111 25529 ft 400 kts 47°
2026-05-03 22:53 59.53668 16.52444 25212 ft 397 kts 47°
2026-05-03 22:53 59.55338 16.56692 24894 ft 395 kts 47°
2026-05-03 22:53 59.57016 16.60960 24593 ft 393 kts 47°
2026-05-03 22:54 59.58796 16.64977 24284 ft 385 kts 37°
2026-05-03 22:54 59.60871 16.68224 23976 ft 377 kts 28°
2026-05-03 22:54 59.63003 16.71226 23650 ft 375 kts 28°
2026-05-03 22:54 59.65117 16.74217 23303 ft 374 kts 28°
2026-05-03 22:55 59.67229 16.77219 22916 ft 372 kts 29°
2026-05-03 22:55 59.69324 16.80204 22576 ft 371 kts 28°
2026-05-03 22:55 59.71386 16.83148 22203 ft 369 kts 28°
2026-05-03 22:55 59.73489 16.86154 21828 ft 367 kts 29°
2026-05-03 22:56 59.75546 16.89143 21458 ft 368 kts 34°
2026-05-03 22:56 59.77196 16.93005 21096 ft 376 kts 60°
2026-05-03 22:56 59.77964 16.97928 20733 ft 374 kts 88°
2026-05-03 22:56 59.77710 17.02974 20377 ft 363 kts 114°
2026-05-03 22:57 59.76574 17.07275 20032 ft 345 kts 137°
2026-05-03 22:57 59.74851 17.10403 19667 ft 333 kts 152°
2026-05-03 22:57 59.72994 17.13168 19274 ft 334 kts 152°
2026-05-03 22:57 59.71129 17.15921 18896 ft 334 kts 151°
2026-05-03 22:58 59.69267 17.18674 18506 ft 334 kts 151°
2026-05-03 22:58 59.67405 17.21432 18091 ft 335 kts 150°
2026-05-03 22:58 59.65556 17.24168 17605 ft 336 kts 150°
2026-05-03 22:58 59.63676 17.26942 17122 ft 337 kts 150°
2026-05-03 22:59 59.61788 17.29726 16621 ft 340 kts 150°
2026-05-03 22:59 59.59889 17.32528 16095 ft 341 kts 150°
2026-05-03 22:59 59.57980 17.35348 15623 ft 342 kts 150°
2026-05-03 22:59 59.56079 17.38149 15133 ft 342 kts 149°
2026-05-03 23:00 59.54176 17.40960 14669 ft 342 kts 147°
2026-05-03 23:00 59.52443 17.44241 14209 ft 347 kts 140°
2026-05-03 23:00 59.50768 17.47657 13740 ft 347 kts 139°
2026-05-03 23:00 59.49091 17.51063 13186 ft 347 kts 139°
2026-05-03 23:01 59.47491 17.54666 12620 ft 354 kts 127°
2026-05-03 23:01 59.46596 17.59206 12071 ft 362 kts 101°
2026-05-03 23:01 59.46538 17.64119 11545 ft 364 kts 90°
2026-05-03 23:01 59.46614 17.69107 11015 ft 364 kts 89°
2026-05-03 23:02 59.46699 17.74071 10495 ft 363 kts 89°
2026-05-03 23:02 59.46784 17.79027 9968 ft 362 kts 89°
2026-05-03 23:02 59.47277 17.83841 9416 ft 362 kts 65°
2026-05-03 23:02 59.48759 17.87747 8860 ft 355 kts 36°
2026-05-03 23:03 59.50908 17.89868 8315 ft 342 kts
2026-05-03 23:03 59.53215 17.89812 7802 ft 328 kts 341°
2026-05-03 23:03 59.55409 17.88588 7266 ft 327 kts 343°
2026-05-03 23:03 59.57694 17.88642 6741 ft 335 kts 10°
2026-05-03 23:04 59.59913 17.89852 6230 ft 334 kts 12°
2026-05-03 23:04 59.62172 17.90842 5683 ft 331 kts
2026-05-03 23:04 59.64438 17.91543 5141 ft 328 kts
2026-05-03 23:04 59.66670 17.91057 4614 ft 320 kts 342°
2026-05-03 23:05 59.68755 17.89831 4444 ft 306 kts 340°
2026-05-03 23:05 59.70748 17.88575 4303 ft 292 kts 336°
2026-05-03 23:05 59.72398 17.86501 4171 ft 274 kts 310°
2026-05-03 23:05 59.73315 17.83356 4042 ft 258 kts 284°
2026-05-03 23:06 59.73681 17.79993 3930 ft 247 kts 278°
2026-05-03 23:06 59.73965 17.76697 3790 ft 239 kts 278°
2026-05-03 23:06 59.74230 17.73506 3660 ft 229 kts 278°
2026-05-03 23:06 59.74473 17.70437 3530 ft 220 kts 277°
2026-05-03 23:07 59.74689 17.67499 3400 ft 211 kts 277°
2026-05-03 23:07 59.74892 17.64687 3275 ft 201 kts 277°
2026-05-03 23:07 59.75085 17.62001 3149 ft 193 kts 277°
2026-05-03 23:07 59.75269 17.59427 3017 ft 184 kts 277°
2026-05-03 23:08 59.75270 17.56969 2882 ft 174 kts 254°
2026-05-03 23:08 59.74705 17.54944 2745 ft 166 kts 225°
2026-05-03 23:08 59.73742 17.53819 2611 ft 160 kts 196°
2026-05-03 23:08 59.72642 17.53791 2533 ft 161 kts 167°
2026-05-03 23:09 59.71649 17.54834 2484 ft 163 kts 145°
2026-05-03 23:09 59.70743 17.56189 2488 ft 164 kts 146°
2026-05-03 23:09 59.69839 17.57521 2470 ft 157 kts 146°
2026-05-03 23:09 59.68959 17.58815 2208 ft 158 kts 146°
2026-05-03 23:10 59.68080 17.60107 2028 ft 156 kts 146°
2026-05-03 23:10 59.67208 17.61385 1974 ft 156 kts 146°
2026-05-03 23:10 59.66333 17.62662 1979 ft 156 kts 146°
2026-05-03 23:10 59.65457 17.63941 1975 ft 156 kts 146°
2026-05-03 23:11 59.64605 17.65188 1816 ft 154 kts 146°
2026-05-03 23:11 59.63744 17.66448 1597 ft 153 kts 146°
2026-05-03 23:11 59.63026 17.67986 1507 ft 156 kts 116°
2026-05-03 23:11 59.62920 17.70089 1489 ft 158 kts 73°
2026-05-03 23:12 59.63264 17.72169 1480 ft 159 kts 77°
2026-05-03 23:12 59.63490 17.74306 1485 ft 159 kts 80°
2026-05-03 23:12 59.63697 17.76462 1490 ft 159 kts 79°
2026-05-03 23:12 59.63923 17.78564 1470 ft 153 kts 78°
2026-05-03 23:13 59.64166 17.80587 1384 ft 148 kts 76°
2026-05-03 23:13 59.64420 17.82522 1280 ft 142 kts 76°
2026-05-03 23:13 59.64663 17.84379 1315 ft 139 kts 76°
2026-05-03 23:13 59.64893 17.86215 1202 ft 140 kts 77°
2026-05-03 23:14 59.65119 17.88063 948 ft 136 kts 77°
2026-05-03 23:14 59.65362 17.89845 669 ft 132 kts 76°
2026-05-03 23:14 59.65585 17.91591 426 ft 129 kts 77°
2026-05-03 23:14 59.65805 17.93309 221 ft 128 kts 77°
2026-05-03 23:15 59.66015 17.94954 138 ft 108 kts 77°
2026-05-03 23:15 59.66157 17.96108 140 ft 68 kts 75°
2026-05-03 23:15 59.66250 17.96823 138 ft 43 kts 76°
2026-05-03 23:15 59.66316 17.97350 138 ft 36 kts 75°
2026-05-03 23:16 59.66372 17.97783 135 ft 18 kts 76°
2026-05-03 23:16 59.66330 17.97924 137 ft 13 kts 170°
2026-05-03 23:16 59.66250 17.97842 138 ft 13 kts 226°
2026-05-03 23:16 59.66173 17.97656 138 ft 18 kts 245°
2026-05-03 23:17 59.66138 17.97384 138 ft 22 kts 256°
2026-05-03 23:17 59.66099 17.97085 138 ft 23 kts 256°
2026-05-03 23:17 59.66055 17.96744 138 ft 29 kts 256°
2026-05-03 23:17 59.66003 17.96334 138 ft 29 kts 256°
2026-05-03 23:18 59.65961 17.96003 138 ft 23 kts 256°
2026-05-03 23:18 59.65928 17.95741 138 ft 19 kts 256°
2026-05-03 23:18 59.65893 17.95476 138 ft 21 kts 256°
2026-05-03 23:18 59.65870 17.95291 138 ft 19 kts 257°
2026-05-03 23:19 59.65798 17.95114 138 ft 13 kts 188°
2026-05-03 23:19 59.65744 17.94975 138 ft 15 kts 256°
2026-05-03 23:19 59.65715 17.94745 138 ft 19 kts 256°
2026-05-03 23:19 59.65678 17.94463 138 ft 23 kts 255°
2026-05-03 23:20 59.65642 17.94178 138 ft 19 kts 256°
2026-05-03 23:20 59.65622 17.94019 138 ft 15 kts 256°
2026-05-03 23:20 59.65584 17.93874 138 ft 13 kts 206°
2026-05-03 23:20 59.65545 17.93878 138 ft 1 kts 166°
2026-05-03 23:21 59.65520 17.93890 138 ft 6 kts 166°
2026-05-03 23:21 59.65476 17.93860 138 ft 7 kts 231°
2026-05-03 23:21 59.65465 17.93769 138 ft 4 kts 256°
2026-05-03 23:21 59.65464 17.93757 138 ft 1 kts 255°
2026-05-03 23:22 59.65463 17.93749 138 ft 0 kts 256°